Flag for Cuba Weather past 2 weeks in Santiago de Cuba, Cuba

Now
72 °F

Passing clouds.


Feels Like: 75 °F
Forecast: 66 / 84 °F
Wind: 14 mph from North

Location: Santiago De Cuba - Oriente

Current Time: Jan 28, 2015 at 9:10:10 AM

Latest Report: Jan 28, 2015 at 7:51 AM


Visibility: 6 mi

Pressure: 30.07 "Hg

Humidity: 69%

Dew point: 61 °F

Location of Santiago de CubaLocation

Historic Weather in Santiago de Cuba — Graph

°F

Santiago de Cuba temperature yesterday

Maximum temperature yesterday: 86 °F (at 1:51 PM)
Minimum temperature yesterday: 72 °F (at 2:51 AM)
Average temperature yesterday: 77 °F

Past Weeks' High & Low Weather Summary

 TemperatureHumidityPressure
High86 °F (Jan 17, 10:50 AM)89% (Jan 14, 10:50 PM)30.09 "Hg (Jan 14, 10:50 PM)
Low68 °F (Jan 20, 4:51 AM)38% (Jan 25, 11:50 AM)29.95 "Hg (Jan 14, 12:53 PM)
Average77 °F70%30.01 "Hg
* Reported Jan 13 7:50 AM — Jan 28 7:51 AM, Santiago de Cuba, Weather by CustomWeather, © 2014

Note: Actual official high and low records may vary slightly from our data, if they occured in-between our weather recording intervals... More about our weather records

Advertising

Santiago de Cuba weather history for previous 24 hours

 ConditionsComfort  
Time TempWeatherWind HumidityBarometerVisibility
7:51 AM
Jan 28
72 °FPassing clouds.14 mph69%30.07 "Hg6 mi
6:52 AM68 °FPassing clouds.13 mph78%30.04 "Hg6 mi
5:52 AM70 °FPassing clouds.14 mph73%30.01 "Hg6 mi
4:51 AM70 °FPassing clouds.14 mph73%30.01 "Hg6 mi
3:51 AM70 °FPassing clouds.13 mph73%29.98 "Hg6 mi
2:51 AM70 °FPassing clouds.13 mph73%29.98 "Hg6 mi
1:51 AM70 °FPassing clouds.12 mph73%30.01 "Hg6 mi
12:51 AM70 °FPassing clouds.12 mph73%30.01 "Hg6 mi
11:52 PM
Jan 27
72 °FPassing clouds.13 mph69%30.01 "Hg6 mi
10:51 PM72 °FPassing clouds.13 mph69%30.04 "Hg6 mi
9:51 PM72 °FPassing clouds.13 mph69%30.04 "Hg6 mi
8:51 PM73 °FPassing clouds.12 mph65%30.01 "Hg6 mi
7:52 PM75 °FPassing clouds.9 mph61%30.01 "Hg6 mi
6:51 PM77 °FPassing clouds.7 mph69%29.98 "Hg6 mi
5:50 PM79 °FPassing clouds.7 mph65%29.98 "HgN/A
4:51 PM81 °FScattered clouds.10 mph62%29.95 "HgN/A
3:51 PM82 °FScattered clouds.12 mph55%29.95 "HgN/A
2:51 PM84 °FScattered clouds.12 mph48%29.95 "HgN/A
1:51 PM86 °FScattered clouds.10 mph38%29.95 "HgN/A
12:51 PM84 °FPassing clouds.12 mph43%29.98 "HgN/A
11:51 AM84 °FPassing clouds.10 mph40%30.01 "HgN/A
10:51 AM82 °FPassing clouds.13 mph45%30.04 "HgN/A
9:50 AM81 °FPassing clouds.14 mph45%30.04 "HgN/A
Weather by CustomWeather, © 2014

See weather overviewHow to use our weather pages